Location: Powell Observatory
(38.6461°N, 94.6997°W)
Time: 03:49:13
(UTC-06:00)

X-37B - Visible Passes

Search period start: 01 December 2021 00:00
Search period end: 11 December 2021 00:00
Orbit: 330 x 341 km, 45.0° (Epoch: 20 November)

Date Brightness Start Highest point End Pass type
(mag) Time Alt. Az. Time Alt. Az. Time Alt. Az.
03 Dec 3.5 19:06:22 10° SSW 19:06:34 11° SSW 19:06:34 11° SSW visible
04 Dec 2.8 17:53:17 10° SSE 17:54:11 11° SE 17:55:05 10° ESE visible
05 Dec 1.4 18:11:48 10° SSW 18:14:22 30° SE 18:14:56 28° ESE visible
06 Dec 0.2 18:31:52 10° WSW 18:34:38 83° SW 18:34:38 83° SW visible
07 Dec 2.2 18:52:31 10° W 18:54:16 28° WNW 18:54:16 28° WNW visible
08 Dec 0.3 17:37:17 10° WSW 17:40:09 88° SSE 17:42:38 13° ENE visible
08 Dec 3.6 19:13:25 10° WNW 19:13:51 13° WNW 19:13:51 13° WNW visible
09 Dec 1.2 17:57:56 10° W 18:00:40 40° NNW 18:02:11 21° NE visible
10 Dec 1.8 18:18:50 10° WNW 18:21:18 25° N 18:21:44 24° N visible
